This demonstration page uses our WeatherBlox Daily Observations layout. Learn more.

36.17497, -115.13722

Hourly Observations for May 24, 2018

Temp ( °F °C ) Dew Point ( °F °C ) Humidity (%) Winds ( mph kmh ) Pressure ( in mb ) Visibility ( mi km ) Precip ( " mm )
12:53 am 00:53 Clear 78 25.6 33 0.6 19 19 SW 5 7 29.85 1011 10 16.09344 0 0
1:53 am 01:53 Clear 75 23.9 33 0.6 22 22 Calm 29.88 1012 10 16.09344 0 0
2:53 am 02:53 Clear 71 21.7 32 0 24 24 E 5 7 29.88 1012 10 16.09344 0 0
3:53 am 03:53 Clear 70 21.1 30 -1.1 23 23 ESE 7 11 29.88 1012 10 16.09344 0 0
4:53 am 04:53 Clear 69 20.6 33 0.6 26 26 Calm 29.91 1013 10 16.09344 0 0
5:53 am 05:53 Sunny 69 20.6 32 0 25 25 NNW 3 6 29.91 1013 10 16.09344 0 0
6:53 am 06:53 Sunny 72 22.2 32 0 23 23 NE 6 9 29.94 1014 10 16.09344 0 0
7:53 am 07:53 Sunny 76 24.4 32 0 20 20 ESE 7 11 29.97 1015 10 16.09344 0 0
8:53 am 08:53 Sunny 78 25.6 32 0 19 19 ESE 5 7 29.97 1015 10 16.09344 0 0
9:53 am 09:53 Sunny 82 27.8 34 1.1 18 18 SSE 9 15 29.97 1015 10 16.09344 0 0
10:53 am 10:53 Sunny 85 29.4 34 1.1 16 16 SSE 12 19 29.97 1015 10 16.09344 0 0
11:53 am 11:53 Sunny 87 30.6 33 0.6 14 14 SSE 15 24 29.94 1014 10 16.09344 0 0
12:04 pm 12:04 Sunny 86 30 32 0 14 14 S 8 13 29.83 1010 10 16.09344 0 0
12:53 pm 12:53 Sunny 88 31.1 33 0.6 14 14 SSW 9 15 29.91 1013 10 16.09344 0 0
1:53 pm 13:53 Sunny 89 31.7 32 0 13 13 SE 8 13 29.88 1012 10 16.09344 0 0
2:53 pm 14:53 Sunny 91 32.8 29 -1.7 11 11 ESE 14 22 29.88 1012 10 16.09344 0 0
3:53 pm 15:53 Sunny 93 33.9 28 -2.2 10 10 SSW 15 24 29.85 1011 10 16.09344 0 0
4:53 pm 16:53 Sunny 91 32.8 27 -2.8 10 10 S 10 17 29.85 1011 10 16.09344 0 0
5:53 pm 17:53 Sunny 91 32.8 27 -2.8 10 10 SSE 16 26 29.83 1010 10 16.09344 0 0
6:53 pm 18:53 Sunny 90 32.2 24 -4.4 9 9 SSE 18 30 29.83 1010 10 16.09344 0 0
7:53 pm 19:53 Clear 88 31.1 18 -7.8 7 7 S 15 24 29.83 1010 10 16.09344 0 0
8:53 pm 20:53 Clear 86 30 18 -7.8 8 8 S 15 24 29.85 1011 10 16.09344 0 0
9:53 pm 21:53 Clear 84 28.9 21 -6.1 10 10 S 10 17 29.85 1011 10 16.09344 0 0
10:53 pm 22:53 Clear 82 27.8 22 -5.6 11 11 S 5 7 29.85 1011 10 16.09344 0 0
11:53 pm 23:53 Clear 79 26.1 24 -4.4 13 13 S 6 9 29.85 1011 10 16.09344 0 0

Powered by AerisWeather